Location: Chaumontel
(49.1247°N, 2.4324°E)
Time: 11:55:22
(UTC+00:00)

BlueWalker 3 - Visible Passes

Search period start: 08 May 2026 00:00
Search period end: 18 May 2026 00:00
Orbit: 448 x 458 km, 53.2° (Epoch: 7 May)

Date Brightness Start Highest point End Pass type
(mag) Time Alt. Az. Time Alt. Az. Time Alt. Az.
8 May 2.9 02:17:39 25° S 02:18:35 29° SE 02:21:43 10° E visible
9 May 3.3 01:42:05 23° SE 01:42:05 23° SE 01:44:49 10° E visible
9 May 1.8 03:15:43 11° WSW 03:19:03 79° NNW 03:22:37 10° ENE visible
10 May 3.9 01:06:29 16° ESE 01:06:29 16° ESE 01:07:49 10° E visible
10 May 1.6 02:40:06 22° WSW 02:42:17 86° SSE 02:45:51 10° ENE visible
11 May 1.6 02:04:26 40° SW 02:05:32 71° SSE 02:09:04 10° ENE visible
12 May 1.8 01:28:43 57° SSE 01:28:47 57° SSE 01:32:17 10° ENE visible
12 May 2.5 03:02:49 10° W 03:06:16 48° NNW 03:09:44 10° ENE visible
13 May 2.7 00:52:57 36° ESE 00:52:57 36° ESE 00:55:27 10° ENE visible
13 May 2.3 02:26:34 14° W 02:29:27 53° NNW 02:32:56 10° ENE visible
14 May 3.6 00:17:08 21° E 00:17:08 21° E 00:18:36 10° ENE visible
14 May 2.1 01:50:45 25° W 01:52:36 60° NNW 01:56:09 10° ENE visible
14 May 3.0 03:27:00 10° WNW 03:30:23 41° N 03:33:47 10° ENE visible
14 May 4.3 23:41:16 12° E 23:41:16 12° E 23:41:41 10° E visible
15 May 1.9 01:14:52 45° W 01:15:47 70° NNW 01:19:20 10° ENE visible
15 May 3.0 02:50:08 10° WNW 02:53:31 41° N 02:56:54 10° ENE visible
16 May 1.6 00:38:55 82° NW 00:38:58 83° NNW 00:42:32 10° ENE visible
16 May 2.9 02:13:15 10° WNW 02:16:39 41° N 02:20:02 10° ENE visible
17 May 2.1 00:02:52 54° ENE 00:02:52 54° ENE 00:05:42 10° ENE visible
17 May 2.9 01:36:27 11° W 01:39:46 43° N 01:43:11 10° ENE visible
17 May 2.6 03:14:05 10° WNW 03:17:34 52° NNE 03:21:03 10° E visible
17 May 2.8 23:26:41 35° ENE 23:26:41 35° ENE 23:28:52 10° ENE visible
